sat.trackr.live / text

‹ back to catalog

STARLINK-4670

NORAD 53744 · 2022-107AW

PAYLOAD ACTIVE UNKNOWN

§ Identity

Operator
Country
US
Launch date
2022-09-05
Launch site
AFETR
Launch vehicle
Mass (kg)
RCS (m²)

Purposes: comms

External: N2YO · Heavens-Above · Gunter

§ Orbital elements

Epoch: 2026-09-20T22:56:57.757056Z

Period
94.01 min
Inclination
53.1611°
Eccentricity
0.0001235
Mean motion
15.31702706 rev/d
Perigee alt
469.9 km
Apogee alt
471.6 km
Semi-major
6,848.9 km
B*
2.6916e-5
RAAN
97.6545°
Arg perigee
87.7577°
Mean anomaly
272.3566°
Rev number
22,420

§ Raw data

STARLINK-46701 53744U 22107AW  26263.95622404  .00000470  00000+0  26916-4 0  99942 53744  53.1611  97.6545 0001235  87.7577 272.3566 15.31702706224203

JSON: /api/v1/satellites/53744 · /tle

For live sub-satellite position, see the globe view (requires WebGL).

§ Visibility from observer

Set your observer location to see the next 7 days of passes ≥ 10°. The values pass through the URL so the page stays shareable.

No JS? Fill the form by hand. The geolocation button needs JavaScript.